Wind_Speed
29 29 30 31 32 33 34 35 35 35 36 36 37 37 38 39 40 41 42 43 43 44 45 46 47 48 49 49 50 51 51 51 51 51 50 50 51 50 50 50 50 50 50
29 30 31 32 33 33 34 34 35 35 36 36 36 36 37 39 40 41 42 43 44 44 46 47 48 49 49 49 50 51 50 50 51 51 51 51 51 51 50 51 51 51 51
29 30 31 32 33 33 33 34 35 35 36 36 36 37 38 39 40 41 42 43 43 44 45 47 47 48 48 49 49 49 49 50 50 52 52 52 53 52 51 51 51 51 51
30 30 31 31 32 33 34 34 35 35 35 36 36 37 38 38 39 40 41 41 41 42 43 44 45 46 47 47 47 48 49 50 50 51 52 52 52 53 52 51 51 50 50
30 30 30 31 32 32 33 34 34 34 34 36 36 37 37 38 38 39 40 40 41 41 41 42 42 43 44 45 46 47 47 48 48 49 50 50 50 51 50 49 49 49 48
29 30 30 30 30 31 32 33 33 34 34 35 36 36 37 37 37 38 39 39 39 40 39 38 38 38 40 42 43 44 45 46 47 46 47 47 48 48 47 47 47 47 46
29 29 29 29 29 30 31 32 32 33 33 34 35 35 35 36 37 37 36 36 36 37 37 37 36 37 37 38 39 40 41 42 43 43 43 44 46 46 45 45 46 45 44
28 29 29 29 29 30 31 31 30 31 32 34 34 33 34 34 35 35 34 33 34 34 35 35 36 35 34 35 35 35 37 39 41 42 41 42 43 43 44 45 44 44 43
28 28 29 29 30 30 30 31 31 31 32 32 32 32 33 33 33 33 33 32 32 33 33 33 33 32 33 33 34 35 36 38 38 39 39 40 40 41 42 43 43 45 44
28 28 29 30 30 31 31 31 31 31 31 31 31 32 32 31 31 31 31 31 31 31 31 31 32 31 32 32 33 33 35 35 36 37 38 38 39 40 40 42 43 44 44
27 28 29 30 31 31 31 30 30 30 30 30 30 30 30 29 29 29 29 30 30 29 30 30 31 31 31 31 31 32 34 34 34 35 36 37 36 36 37 39 40 41 41
27 28 29 29 29 29 29 28 29 29 29 28 28 28 27 27 27 28 28 28 28 28 28 29 29 30 30 30 30 31 32 33 33 35 35 34 34 34 35 36 37 37 37
27 27 27 27 28 28 27 27 27 27 27 27 26 26 25 26 26 27 27 27 26 27 27 27 27 28 28 28 29 30 30 31 32 32 31 31 31 30 31 33 35 35 35
27 27 27 27 27 27 26 26 26 26 26 26 24 24 24 25 25 25 25 25 25 26 26 26 26 27 27 27 28 29 29 28 28 28 29 29 28 28 29 30 32 33 34
27 26 26 26 26 26 25 25 25 25 25 25 24 23 23 24 24 24 24 24 24 24 25 26 27 27 26 27 28 28 28 27 26 27 28 28 27 27 28 29 30 31 33
25 25 25 25 25 25 24 24 24 24 24 24 23 22 23 23 23 24 24 24 24 23 24 26 26 26 26 26 27 26 26 25 25 26 27 27 27 28 28 29 30 31 32
25 25 26 25 24 23 23 23 23 24 24 24 23 22 23 24 24 24 24 24 24 24 25 26 25 26 27 26 24 24 23 24 25 25 26 27 27 27 28 29 30 31 31
26 26 25 25 24 23 23 23 23 23 23 22 22 23 23 24 25 25 25 24 24 25 26 25 25 27 27 26 25 24 24 24 24 25 26 27 27 27 28 29 29 30 31
26 26 25 25 24 23 23 23 23 23 23 23 23 23 24 25 25 25 25 24 25 25 25 25 26 26 26 25 24 24 25 24 25 25 26 28 28 28 29 30 30 30 31
27 26 25 24 24 24 24 24 23 22 23 23 24 24 25 26 25 25 25 25 26 26 26 27 27 26 25 24 24 25 25 24 24 25 27 28 28 28 29 30 30 30 30
27 27 26 25 25 26 25 24 23 23 24 25 25 25 26 26 26 25 25 26 27 27 28 28 27 26 25 24 25 25 25 25 25 26 26 26 27 29 29 29 29 29 29
27 27 27 27 27 25 25 24 24 25 25 25 26 26 26 26 26 27 27 28 28 28 27 28 27 26 25 25 26 26 26 26 26 26 26 27 28 28 28 28 28 27 27
28 27 28 27 26 25 25 25 25 26 26 26 26 26 26 26 27 28 28 28 28 29 29 28 27 26 26 27 28 28 28 27 27 27 27 28 28 28 27 27 27 26 25
28 27 27 27 26 26 25 26 26 26 27 28 28 27 27 27 28 29 29 30 30 30 29 28 28 28 28 28 29 29 28 28 27 28 29 29 29 27 26 26 25 24 24
28 28 28 27 27 26 27 27 26 27 27 28 27 27 28 28 29 30 31 31 31 30 29 28 28 28 28 28 28 28 28 28 28 28 28 27 26 25 25 24 24 23 22
29 28 28 28 27 27 27 27 27 27 28 28 28 28 29 30 31 31 31 31 31 30 29 29 28 27 27 27 27 27 27 27 27 27 26 25 24 23 23 22 21 21 20
Wind_Direction
270 271 272 274 275 276 276 276 276 276 276 277 278 278 279 279 278 277 276 276 274 273 271 270 269 268 266 265 265 265 264 264 263 262 261 262 263 263 263 263 264 265 266
270 272 273 275 277 277 277 277 277 277 278 278 279 280 280 279 278 278 278 278 277 275 274 272 272 270 267 267 266 264 264 264 264 262 262 261 262 262 262 263 265 266 266
272 274 275 277 278 278 278 277 277 279 279 279 279 281 282 281 279 279 279 280 281 279 276 274 272 271 268 267 266 265 264 264 263 263 263 263 263 263 262 263 264 265 266
275 276 277 278 279 279 279 279 280 281 281 281 281 283 283 282 281 280 280 281 282 283 279 276 273 271 269 267 265 264 264 265 265 264 264 264 265 265 264 263 264 265 265
276 277 278 279 280 279 280 281 282 282 282 282 283 284 284 283 282 282 281 282 283 284 283 279 276 273 270 268 266 264 265 265 265 265 265 265 266 265 266 265 265 265 266
276 278 278 280 282 281 282 282 283 283 283 284 284 285 285 284 283 284 284 284 284 284 283 281 279 276 273 269 268 266 265 265 266 266 266 265 265 266 266 266 266 266 267
276 278 279 281 283 284 285 285 284 283 284 285 286 287 287 286 286 286 286 286 286 284 282 280 279 278 275 271 270 268 266 265 266 267 268 267 266 266 266 266 267 267 267
278 280 282 284 285 286 287 287 285 285 285 287 288 288 289 289 288 287 286 288 289 285 283 280 278 277 275 274 272 271 269 269 267 267 269 270 267 265 266 267 269 268 267
279 281 284 285 286 287 288 289 288 286 286 287 288 288 289 291 291 290 288 288 289 286 284 282 279 277 276 275 272 272 273 273 271 268 270 271 269 266 267 269 271 271 269
281 284 286 285 286 287 288 290 290 288 288 287 288 289 289 290 292 292 289 289 289 287 284 284 282 280 278 276 275 275 277 278 274 270 271 271 268 268 267 268 271 272 272
283 285 288 287 287 288 288 289 290 291 290 289 290 291 289 289 291 293 291 290 289 287 286 285 284 282 280 279 278 279 279 278 275 274 272 271 270 268 269 270 273 274 274
284 286 289 290 289 290 289 289 290 293 293 291 290 291 291 291 293 295 293 291 289 288 288 288 287 286 283 280 281 281 279 277 277 275 273 272 272 273 271 271 272 274 274
283 285 288 290 290 291 290 289 292 293 293 293 290 290 292 293 294 295 295 293 290 289 289 291 289 288 286 283 284 284 284 279 278 276 275 274 275 276 274 273 273 274 275
283 285 287 288 290 291 289 289 292 294 294 293 290 289 291 295 295 295 296 295 293 291 290 291 291 290 288 287 287 286 286 282 276 276 277 276 275 276 277 277 277 277 276
283 284 285 287 288 289 288 289 292 294 294 293 292 289 292 295 296 297 297 297 297 297 295 294 293 293 291 290 290 288 284 281 277 277 277 276 277 280 280 281 280 281 280
279 281 283 287 289 290 288 288 290 292 292 292 291 291 293 294 296 298 298 299 301 302 302 297 295 293 294 294 291 287 283 280 280 280 278 276 278 280 282 283 282 283 282
276 277 281 284 286 287 288 288 288 290 291 292 292 292 293 293 295 297 298 299 300 302 303 301 299 296 294 294 290 287 284 280 281 281 279 277 279 280 281 282 283 284 283
273 275 278 283 285 284 287 290 290 291 294 294 293 293 292 293 295 297 298 299 299 302 304 302 301 298 296 293 288 285 284 284 282 282 280 279 279 281 282 283 284 284 283
273 274 277 281 283 283 285 288 291 292 293 294 293 292 292 293 295 297 299 300 301 303 303 302 300 300 297 293 290 287 285 286 286 285 282 280 281 282 282 283 284 284 282
272 273 276 281 281 281 283 286 288 290 292 293 293 294 293 293 294 296 299 301 303 303 302 301 301 300 297 292 290 290 288 288 288 287 283 281 282 283 284 284 285 284 283
270 272 274 277 279 279 281 283 285 287 289 291 294 294 294 295 295 295 297 299 301 302 301 301 301 298 295 295 295 293 291 289 287 287 284 283 284 286 286 286 286 285 284
270 271 273 274 275 277 278 279 282 285 288 291 293 294 293 294 295 295 296 298 298 299 300 301 299 297 295 295 296 295 293 290 288 287 286 285 286 287 286 286 287 286 284
269 270 272 273 273 273 274 276 280 284 288 290 292 292 292 292 293 294 295 296 296 296 298 299 298 295 293 293 294 294 292 290 289 287 286 287 286 285 284 286 287 285 282
268 269 270 271 271 272 275 276 281 284 287 289 291 291 291 292 293 295 295 296 297 296 295 296 295 294 294 294 295 293 292 291 289 288 288 288 286 285 285 286 285 283 281
267 267 268 269 269 271 275 278 281 284 286 289 290 290 291 292 294 294 296 297 297 296 296 296 296 296 295 294 294 294 292 291 289 289 290 289 287 285 284 284 283 282 282
266 267 267 266 267 269 273 278 280 284 286 289 290 292 292 293 294 296 296 297 296 296 297 298 297 297 296 295 294 294 294 292 290 289 289 287 286 284 283 284 283 283 283
Height
5723 5722 5722 5721 5720 5719 5718 5717 5716 5715 5713 5712 5711 5709 5708 5706 5704 5702 5700 5698 5696 5695 5694 5693 5693 5693 5694 5695 5696 5697 5699 5701 5702 5704 5707 5710 5712 5713 5715 5716 5718 5719 5720
5716 5715 5714 5713 5711 5710 5708 5707 5706 5705 5704 5702 5701 5699 5697 5695 5693 5691 5689 5686 5684 5682 5680 5680 5679 5679 5680 5681 5682 5683 5685 5686 5688 5690 5693 5696 5699 5700 5702 5703 5704 5706 5707
5708 5708 5706 5705 5703 5701 5699 5697 5696 5695 5694 5692 5691 5689 5687 5684 5682 5680 5677 5675 5672 5669 5667 5665 5665 5664 5665 5666 5667 5669 5671 5673 5675 5675 5677 5680 5684 5687 5689 5690 5691 5692 5693
5700 5700 5698 5697 5694 5692 5690 5688 5687 5686 5684 5682 5681 5678 5676 5674 5671 5669 5666 5663 5660 5657 5654 5652 5650 5650 5651 5652 5653 5655 5657 5658 5660 5661 5663 5665 5667 5670 5674 5677 5678 5678 5679
5693 5691 5690 5688 5686 5684 5682 5680 5678 5676 5674 5672 5670 5668 5665 5663 5660 5658 5655 5652 5649 5645 5642 5639 5637 5636 5637 5638 5639 5641 5643 5644 5645 5647 5649 5651 5653 5655 5657 5661 5664 5665 5666
5685 5683 5682 5680 5677 5675 5673 5671 5669 5667 5665 5662 5660 5658 5655 5652 5649 5646 5643 5640 5637 5634 5630 5628 5626 5625 5624 5625 5627 5628 5630 5630 5632 5633 5635 5637 5639 5642 5644 5647 5650 5652 5653
5677 5675 5674 5672 5669 5667 5664 5662 5660 5658 5655 5653 5650 5647 5644 5641 5638 5635 5632 5629 5626 5623 5620 5618 5616 5615 5614 5615 5616 5617 5618 5618 5619 5621 5622 5624 5626 5629 5631 5634 5636 5639 5641
5668 5667 5665 5663 5660 5658 5655 5653 5650 5648 5646 5643 5640 5637 5634 5631 5627 5624 5621 5619 5616 5613 5611 5608 5607 5606 5606 5606 5606 5607 5608 5608 5608 5610 5611 5612 5615 5617 5620 5621 5623 5626 5629
5660 5658 5656 5653 5651 5649 5646 5644 5641 5638 5635 5632 5630 5627 5624 5621 5618 5615 5612 5610 5607 5604 5602 5600 5599 5598 5598 5598 5598 5598 5598 5598 5599 5600 5601 5602 5604 5606 5608 5610 5611 5614 5616
5652 5649 5647 5644 5642 5639 5637 5634 5631 5628 5626 5623 5621 5618 5615 5613 5610 5606 5604 5601 5599 5596 5594 5593 5591 5590 5590 5589 5589 5589 5589 5589 5590 5590 5592 5593 5594 5596 5598 5599 5601 5602 5603
5643 5641 5638 5635 5633 5630 5628 5625 5622 5619 5617 5614 5612 5610 5607 5605 5602 5599 5596 5594 5592 5590 5588 5586 5584 5583 5582 5581 5581 5581 5581 5581 5582 5582 5583 5584 5585 5586 5588 5589 5590 5591 5591
5635 5632 5630 5627 5624 5621 5619 5616 5614 5612 5609 5606 5604 5602 5600 5598 5596 5593 5590 5588 5586 5584 5582 5579 5578 5576 5575 5574 5574 5573 5573 5574 5574 5575 5575 5576 5577 5578 5579 5580 5581 5581 5581
5627 5625 5622 5619 5616 5614 5611 5609 5607 5604 5601 5599 5597 5595 5594 5592 5590 5588 5585 5583 5581 5579 5577 5574 5572 5570 5569 5568 5567 5567 5566 5566 5567 5567 5568 5569 5569 5570 5571 5571 5572 5572 5573
5620 5618 5615 5612 5609 5607 5605 5603 5601 5598 5595 5593 5591 5589 5588 5587 5585 5583 5580 5578 5576 5574 5572 5569 5567 5565 5563 5562 5561 5560 5560 5560 5560 5561 5561 5562 5562 5563 5563 5564 5564 5564 5564
5613 5611 5608 5606 5603 5601 5599 5597 5595 5592 5590 5587 5586 5585 5583 5582 5580 5578 5576 5574 5572 5569 5567 5565 5562 5559 5557 5556 5555 5554 5554 5554 5554 5555 5555 5555 5555 5556 5556 5556 5556 5556 5556
5606 5604 5602 5600 5598 5595 5593 5591 5589 5587 5584 5582 5581 5579 5578 5578 5576 5574 5572 5570 5567 5565 5562 5560 5557 5555 5552 5551 5549 5548 5548 5548 5548 5549 5549 5549 5549 5549 5549 5548 5548 5548 5547
5600 5598 5596 5595 5593 5590 5588 5586 5584 5582 5579 5577 5576 5575 5575 5573 5572 5570 5568 5566 5563 5561 5558 5555 5552 5550 5547 5545 5544 5543 5543 5543 5543 5543 5543 5543 5543 5542 5542 5541 5541 5540 5539
5593 5592 5591 5589 5587 5585 5583 5581 5579 5577 5575 5574 5573 5571 5570 5569 5567 5565 5563 5561 5559 5556 5554 5551 5548 5546 5543 5540 5539 5538 5538 5537 5537 5537 5536 5536 5536 5535 5534 5534 5534 5533 5533
5587 5586 5585 5584 5582 5580 5578 5577 5575 5573 5571 5570 5569 5567 5566 5564 5562 5561 5558 5556 5554 5552 5549 5546 5543 5541 5538 5536 5534 5533 5532 5532 5531 5530 5530 5529 5529 5528 5527 5527 5527 5526 5525
5581 5580 5580 5578 5577 5575 5573 5572 5571 5569 5568 5566 5564 5562 5561 5559 5557 5555 5553 5551 5549 5546 5544 5541 5538 5536 5533 5531 5529 5527 5526 5526 5525 5524 5523 5522 5521 5521 5520 5519 5518 5517 5516
5574 5573 5573 5573 5572 5570 5568 5567 5566 5564 5563 5561 5559 5557 5555 5553 5551 5550 5548 5545 5543 5541 5538 5536 5533 5530 5528 5526 5524 5522 5520 5519 5518 5518 5516 5515 5514 5513 5512 5511 5510 5509 5508
5566 5566 5566 5566 5565 5564 5563 5562 5560 5559 5557 5556 5554 5551 5549 5547 5545 5544 5542 5539 5537 5535 5532 5530 5527 5524 5522 5520 5518 5516 5514 5512 5511 5511 5510 5509 5507 5506 5505 5504 5503 5501 5500
5559 5559 5559 5558 5558 5557 5556 5555 5555 5553 5552 5550 5548 5546 5544 5542 5540 5537 5535 5533 5531 5528 5526 5523 5521 5518 5516 5514 5511 5510 5508 5506 5504 5503 5502 5501 5500 5499 5497 5496 5495 5494 5493
5552 5552 5552 5551 5551 5550 5550 5549 5548 5547 5546 5544 5542 5540 5538 5536 5534 5532 5529 5527 5524 5521 5519 5516 5514 5512 5509 5507 5505 5503 5501 5499 5497 5496 5494 5493 5492 5491 5490 5488 5487 5486 5486
5543 5544 5544 5544 5544 5543 5543 5542 5541 5541 5539 5538 5536 5534 5532 5530 5528 5526 5523 5520 5517 5514 5512 5509 5507 5505 5503 5500 5497 5495 5494 5492 5490 5488 5487 5486 5484 5483 5482 5481 5480 5479 5479
5535 5536 5536 5536 5536 5536 5536 5535 5534 5534 5533 5531 5530 5527 5526 5524 5521 5519 5516 5513 5510 5507 5504 5502 5499 5497 5495 5493 5490 5488 5486 5484 5482 5481 5480 5478 5477 5476 5475 5474 5473 5473 5472